User: anonymous   Login
Location: Adrasan
(36.3319°N, 30.4314°E)
Time: 05:49:31
(UTC+00:00)
Language:

Cosmos 1624 Rocket - Orbit

View from above orbital plane
View from above orbital plane
View from above satellite
View from above satellite

Ground track
Ground track

The orbit data is extracted from the following two-line orbital elements,

1 15483U 85006B   24112.41448490  .00001016  00000-0  35086-3 0  9997
2 15483  74.0444  85.0733 0018559 173.9877 304.0747 14.36995827 55270
Epoch (UTC): 21 April 2024 09:56:51
Eccentricity: 0.0018559
inclination: 74.0444°
perigee height: 755 km
apogee height: 782 km
right ascension of ascending node: 85.0733°
argument of perigee: 173.9877°
revolutions per day: 14.36995827
mean anomaly at epoch: 304.0747°
orbit number at epoch: 5527

The dashed part of the orbit path shows where the satellite is in the earth's shadow,  

DLR